カタログに戻る

STARLINK-4720

運用中通信VLEO
NORAD 53800·PAYLOAD·🇺🇸 United States

打ち上げ Sep 11, 2022 から Cape Canaveral Space Force Station

Loading…

次のパス (今後24時間)

TLE

最新Source: CelesTrak SupGP

元期: Sep 15, 2026, 02:21 UTC

1 53800C 22111AD  26258.09840278  .00040276  00000+0  34844-3 0  2586
2 53800  53.2051  40.1900 0002150  93.7585 148.7415 15.68500434    10

AllMySatでSTARLINK-4720をリアルタイム追跡

Download on the App Store